Time,TemperatureF,DewpointF,PressureIn,WindDirection,WindDirectionDegrees,WindSpeedMPH,WindSpeedGustMPH,Humidity,HourlyPrecipIn,Conditions,Clouds,dailyrainin,SoftwareType,DateUTC
2013-01-12 00:00:00,65.7,63.3,30.20,SSE,159,0.0,0.0,92,0.00,,---,0.00,VWS V14.00,2013-01-12 05:00:00,
2013-01-12 00:01:00,65.7,63.3,30.20,SSE,159,0.0,0.0,92,0.00,,---,0.00,VWS V14.00,2013-01-12 05:01:00,
2013-01-12 00:06:00,65.5,63.1,30.20,SSE,159,0.0,0.0,92,0.00,,---,0.00,VWS V14.00,2013-01-12 05:06:00,
2013-01-12 00:07:00,65.5,63.1,30.20,SSE,159,0.0,0.0,92,0.00,,---,0.00,VWS V14.00,2013-01-12 05:07:00,
2013-01-12 00:12:00,65.5,63.4,30.20,SSE,159,0.0,0.0,93,0.00,,---,0.00,VWS V14.00,2013-01-12 05:12:00,
2013-01-12 00:17:00,65.7,63.6,30.20,SSE,159,0.0,0.0,93,0.00,,---,0.00,VWS V14.00,2013-01-12 05:17:00,
2013-01-12 00:22:00,65.8,63.7,30.20,SSE,159,0.0,0.0,93,0.00,,---,0.00,VWS V14.00,2013-01-12 05:22:00,
2013-01-12 00:27:00,65.8,63.7,30.20,SSE,159,0.0,0.0,93,0.00,,---,0.00,VWS V14.00,2013-01-12 05:27:00,
2013-01-12 00:30:00,65.6,63.8,30.19,SSE,159,0.0,0.0,94,0.00,,---,0.00,VWS V14.00,2013-01-12 05:30:00,
2013-01-12 00:32:00,65.8,63.7,30.20,SSE,159,0.0,0.0,93,0.00,,---,0.00,VWS V14.00,2013-01-12 05:32:00,
2013-01-12 00:38:00,65.8,63.7,30.19,SSE,159,0.0,0.0,93,0.00,,---,0.00,VWS V14.00,2013-01-12 05:38:00,
2013-01-12 00:43:00,65.8,63.7,30.19,SSE,159,0.0,0.0,93,0.00,,---,0.00,VWS V14.00,2013-01-12 05:43:00,
2013-01-12 00:48:00,65.8,64.0,30.19,SSE,159,0.0,0.0,94,0.00,,---,0.00,VWS V14.00,2013-01-12 05:48:00,
2013-01-12 00:53:00,65.8,64.0,30.19,SSE,159,0.0,0.0,94,0.00,,---,0.00,VWS V14.00,2013-01-12 05:53:00,
2013-01-12 00:58:00,65.8,64.0,30.19,SSE,159,0.0,0.0,94,0.00,,---,0.00,VWS V14.00,2013-01-12 05:58:00,
2013-01-12 01:00:00,64.7,62.9,30.18,SSE,159,0.0,0.0,94,0.00,,---,0.00,VWS V14.00,2013-01-12 06:00:00,
2013-01-12 01:03:00,65.9,64.1,30.19,SSE,159,0.0,0.0,94,0.00,,---,0.00,VWS V14.00,2013-01-12 06:03:00,
2013-01-12 01:08:00,65.8,64.0,30.19,SSE,159,0.0,0.0,94,0.00,,---,0.00,VWS V14.00,2013-01-12 06:08:00,
2013-01-12 01:13:00,65.8,64.0,30.19,SSE,159,0.0,0.0,94,0.00,,---,0.00,VWS V14.00,2013-01-12 06:13:00,
2013-01-12 01:18:00,65.8,64.0,30.18,SSE,159,0.0,0.0,94,0.00,,---,0.00,VWS V14.00,2013-01-12 06:18:00,
2013-01-12 01:23:00,65.7,63.9,30.19,SSE,159,0.0,0.0,94,0.00,,---,0.00,VWS V14.00,2013-01-12 06:23:00,
2013-01-12 01:28:00,65.6,63.8,30.19,SSE,159,0.0,0.0,94,0.00,,---,0.00,VWS V14.00,2013-01-12 06:28:00,
2013-01-12 01:30:00,64.0,62.2,30.18,SSE,159,0.0,0.0,94,0.00,,---,0.00,VWS V14.00,2013-01-12 06:30:00,
2013-01-12 01:33:00,65.5,63.7,30.19,SSE,159,0.0,0.0,94,0.00,,---,0.00,VWS V14.00,2013-01-12 06:33:00,
2013-01-12 01:38:00,65.5,63.7,30.18,SSE,159,0.0,0.0,94,0.00,,---,0.00,VWS V14.00,2013-01-12 06:38:00,
2013-01-12 01:43:00,65.3,63.5,30.18,SSE,159,0.0,0.0,94,0.00,,---,0.00,VWS V14.00,2013-01-12 06:43:00,
2013-01-12 01:49:00,65.2,63.4,30.18,SSE,159,0.0,0.0,94,0.00,,---,0.00,VWS V14.00,2013-01-12 06:49:00,
2013-01-12 01:54:00,65.0,63.2,30.18,SSE,159,0.0,0.0,94,0.00,,---,0.00,VWS V14.00,2013-01-12 06:54:00,
2013-01-12 01:59:00,64.8,63.0,30.18,SSE,159,0.0,0.0,94,0.00,,---,0.00,VWS V14.00,2013-01-12 06:59:00,
2013-01-12 02:00:00,63.1,61.7,30.18,SSE,159,0.0,0.0,95,0.00,,---,0.00,VWS V14.00,2013-01-12 07:00:00,
2013-01-12 02:04:00,64.6,62.8,30.18,SSE,159,0.0,0.0,94,0.00,,---,0.00,VWS V14.00,2013-01-12 07:04:00,
2013-01-12 02:09:00,64.7,62.9,30.18,SSE,159,0.0,0.0,94,0.00,,---,0.00,VWS V14.00,2013-01-12 07:09:00,
2013-01-12 02:14:00,64.5,62.7,30.18,SSE,159,0.0,0.0,94,0.00,,---,0.00,VWS V14.00,2013-01-12 07:14:00,
2013-01-12 02:19:00,64.4,62.6,30.18,SSE,159,0.0,0.0,94,0.00,,---,0.00,VWS V14.00,2013-01-12 07:19:00,
2013-01-12 02:24:00,64.3,62.8,30.18,SSE,159,0.0,0.0,95,0.00,,---,0.00,VWS V14.00,2013-01-12 07:24:00,
2013-01-12 02:29:00,64.1,62.6,30.18,SSE,159,0.0,0.0,95,0.00,,---,0.00,VWS V14.00,2013-01-12 07:29:00,
2013-01-12 02:30:00,62.4,61.0,30.17,SSE,159,0.0,0.0,95,0.00,,---,0.00,VWS V14.00,2013-01-12 07:30:00,
2013-01-12 02:34:00,63.9,62.1,30.18,SSE,159,0.0,0.0,94,0.00,,---,0.00,VWS V14.00,2013-01-12 07:34:00,
2013-01-12 02:39:00,63.7,62.0,30.18,SSE,159,0.0,0.0,94,0.00,,---,0.00,VWS V14.00,2013-01-12 07:39:00,
2013-01-12 02:44:00,63.5,62.0,30.18,SSE,159,0.0,0.0,95,0.00,,---,0.00,VWS V14.00,2013-01-12 07:44:00,
2013-01-12 02:49:00,63.4,62.0,30.18,SSE,159,0.0,0.0,95,0.00,,---,0.00,VWS V14.00,2013-01-12 07:49:00,
2013-01-12 02:54:00,63.2,61.8,30.18,SSE,159,0.0,0.0,95,0.00,,---,0.00,VWS V14.00,2013-01-12 07:54:00,
2013-01-12 02:59:00,63.1,61.7,30.18,SSE,159,0.0,0.0,95,0.00,,---,0.00,VWS V14.00,2013-01-12 07:59:00,
2013-01-12 03:00:00,61.6,60.2,30.17,SSE,159,0.0,0.0,95,0.00,,---,0.00,VWS V14.00,2013-01-12 08:00:00,
2013-01-12 03:04:00,63.0,61.5,30.18,SSE,159,0.0,0.0,95,0.00,,---,0.00,VWS V14.00,2013-01-12 08:04:00,
2013-01-12 03:09:00,62.9,61.5,30.18,SSE,159,0.0,0.0,95,0.00,,---,0.00,VWS V14.00,2013-01-12 08:09:00,
2013-01-12 03:14:00,62.7,61.2,30.17,SSE,159,0.0,0.0,95,0.00,,---,0.00,VWS V14.00,2013-01-12 08:14:00,
2013-01-12 03:19:00,62.6,61.2,30.17,SSE,159,0.0,0.0,95,0.00,,---,0.00,VWS V14.00,2013-01-12 08:19:00,
2013-01-12 03:24:00,62.6,61.2,30.17,SSE,159,0.0,0.0,95,0.00,,---,0.00,VWS V14.00,2013-01-12 08:24:00,
2013-01-12 03:29:00,62.4,61.0,30.17,SSE,159,0.0,0.0,95,0.00,,---,0.00,VWS V14.00,2013-01-12 08:29:00,
2013-01-12 03:30:00,61.2,59.8,30.17,SSE,159,0.0,0.0,95,0.00,,---,0.00,VWS V14.00,2013-01-12 08:30:00,
2013-01-12 03:34:00,62.2,60.8,30.17,SSE,159,0.0,0.0,95,0.00,,---,0.00,VWS V14.00,2013-01-12 08:34:00,
2013-01-12 03:39:00,62.1,60.7,30.17,SSE,159,0.0,0.0,95,0.00,,---,0.00,VWS V14.00,2013-01-12 08:39:00,
2013-01-12 03:44:00,62.0,60.6,30.17,SSE,159,0.0,0.0,95,0.00,,---,0.00,VWS V14.00,2013-01-12 08:44:00,
2013-01-12 03:50:00,62.0,60.6,30.17,SSE,159,0.0,0.0,95,0.00,,---,0.00,VWS V14.00,2013-01-12 08:50:00,
2013-01-12 03:55:00,61.9,60.5,30.17,SSE,159,0.0,0.0,95,0.00,,---,0.00,VWS V14.00,2013-01-12 08:55:00,
2013-01-12 04:00:00,61.7,60.3,30.17,SSE,159,0.0,0.0,95,0.00,,---,0.00,VWS V14.00,2013-01-12 09:00:00,
2013-01-12 04:05:00,61.6,60.2,30.17,SSE,159,0.0,0.0,95,0.00,,---,0.00,VWS V14.00,2013-01-12 09:05:00,
2013-01-12 04:10:00,61.5,60.1,30.17,SSE,159,0.0,0.0,95,0.00,,---,0.00,VWS V14.00,2013-01-12 09:10:00,
2013-01-12 04:15:00,61.4,60.0,30.17,SSE,159,0.0,0.0,95,0.00,,---,0.00,VWS V14.00,2013-01-12 09:15:00,
2013-01-12 04:20:00,61.3,59.9,30.16,SSE,159,0.0,0.0,95,0.00,,---,0.00,VWS V14.00,2013-01-12 09:20:00,
2013-01-12 04:25:00,61.2,59.8,30.17,SSE,159,0.0,0.0,95,0.00,,---,0.00,VWS V14.00,2013-01-12 09:25:00,
2013-01-12 04:30:00,61.2,59.8,30.17,SSE,159,0.0,0.0,95,0.00,,---,0.00,VWS V14.00,2013-01-12 09:30:00,
2013-01-12 04:35:00,61.2,59.8,30.16,SSE,159,0.0,0.0,95,0.00,,---,0.00,VWS V14.00,2013-01-12 09:35:00,
2013-01-12 04:40:00,61.2,59.8,30.16,SSE,159,0.0,0.0,95,0.00,,---,0.00,VWS V14.00,2013-01-12 09:40:00,
2013-01-12 04:45:00,61.1,59.7,30.16,SSE,159,0.0,0.0,95,0.00,,---,0.00,VWS V14.00,2013-01-12 09:45:00,
2013-01-12 04:50:00,60.9,59.5,30.16,SSE,159,0.0,0.0,95,0.00,,---,0.00,VWS V14.00,2013-01-12 09:50:00,
2013-01-12 04:55:00,60.8,59.4,30.16,SSE,159,0.0,0.0,95,0.00,,---,0.00,VWS V14.00,2013-01-12 09:55:00,
2013-01-12 05:00:00,60.7,59.3,30.16,SSE,159,0.0,0.0,95,0.00,,---,0.00,VWS V14.00,2013-01-12 10:00:00,
2013-01-12 05:05:00,60.6,59.2,30.17,SSE,159,0.0,0.0,95,0.00,,---,0.00,VWS V14.00,2013-01-12 10:05:00,
2013-01-12 05:10:00,60.5,59.1,30.17,SSE,159,0.0,0.0,95,0.00,,---,0.00,VWS V14.00,2013-01-12 10:10:00,
2013-01-12 05:15:00,60.6,59.2,30.17,SSE,159,0.0,0.0,95,0.00,,---,0.00,VWS V14.00,2013-01-12 10:15:00,
2013-01-12 05:21:00,60.5,59.1,30.17,SSE,159,0.0,0.0,95,0.00,,---,0.00,VWS V14.00,2013-01-12 10:21:00,
2013-01-12 05:26:00,60.3,58.9,30.17,SSE,159,0.0,0.0,95,0.00,,---,0.00,VWS V14.00,2013-01-12 10:26:00,
2013-01-12 05:30:00,59.6,58.5,30.18,SSE,159,0.0,0.0,96,0.00,,---,0.00,VWS V14.00,2013-01-12 10:30:00,
2013-01-12 05:31:00,60.2,58.8,30.17,SSE,159,0.0,0.0,95,0.00,,---,0.00,VWS V14.00,2013-01-12 10:31:00,
2013-01-12 05:36:00,60.2,58.8,30.17,SSE,159,0.0,0.0,95,0.00,,---,0.00,VWS V14.00,2013-01-12 10:36:00,
2013-01-12 05:41:00,60.1,58.7,30.17,SSE,159,0.0,0.0,95,0.00,,---,0.00,VWS V14.00,2013-01-12 10:41:00,
2013-01-12 05:46:00,60.0,58.6,30.17,SSE,159,0.0,0.0,95,0.00,,---,0.00,VWS V14.00,2013-01-12 10:46:00,
2013-01-12 05:51:00,59.8,58.7,30.17,SSE,159,0.0,0.0,96,0.00,,---,0.00,VWS V14.00,2013-01-12 10:51:00,
2013-01-12 05:56:00,59.8,58.7,30.17,SSE,159,0.0,0.0,96,0.00,,---,0.00,VWS V14.00,2013-01-12 10:56:00,
2013-01-12 06:00:00,59.2,58.1,30.19,SSE,159,0.0,0.0,96,0.00,,---,0.00,VWS V14.00,2013-01-12 11:00:00,
2013-01-12 06:01:00,59.9,58.8,30.17,SSE,159,0.0,0.0,96,0.00,,---,0.00,VWS V14.00,2013-01-12 11:01:00,
2013-01-12 06:06:00,60.0,58.9,30.17,SSE,159,0.0,0.0,96,0.00,,---,0.00,VWS V14.00,2013-01-12 11:06:00,
2013-01-12 06:11:00,60.0,58.9,30.17,SSE,159,0.0,0.0,96,0.00,,---,0.00,VWS V14.00,2013-01-12 11:11:00,
2013-01-12 06:16:00,59.9,58.8,30.17,SSE,159,0.0,0.0,96,0.00,,---,0.00,VWS V14.00,2013-01-12 11:16:00,
2013-01-12 06:21:00,59.8,58.7,30.17,SSE,159,0.0,0.0,96,0.00,,---,0.00,VWS V14.00,2013-01-12 11:21:00,
2013-01-12 06:26:00,59.7,58.6,30.18,SSE,159,0.0,0.0,96,0.00,,---,0.00,VWS V14.00,2013-01-12 11:26:00,
2013-01-12 06:30:00,59.0,57.9,30.19,SSE,159,0.0,0.0,96,0.00,,---,0.00,VWS V14.00,2013-01-12 11:30:00,
2013-01-12 06:31:00,59.6,58.5,30.18,SSE,159,0.0,0.0,96,0.00,,---,0.00,VWS V14.00,2013-01-12 11:31:00,
2013-01-12 06:36:00,59.4,58.3,30.18,SSE,159,0.0,0.0,96,0.00,,---,0.00,VWS V14.00,2013-01-12 11:36:00,
2013-01-12 06:41:00,59.3,58.2,30.18,SSE,159,0.0,0.0,96,0.00,,---,0.00,VWS V14.00,2013-01-12 11:41:00,
2013-01-12 06:46:00,59.2,58.1,30.18,SSE,159,0.0,0.0,96,0.00,,---,0.00,VWS V14.00,2013-01-12 11:46:00,
2013-01-12 06:52:00,59.1,58.0,30.18,SSE,159,0.0,0.0,96,0.00,,---,0.00,VWS V14.00,2013-01-12 11:52:00,
2013-01-12 06:57:00,59.2,58.1,30.18,SSE,159,0.0,0.0,96,0.00,,---,0.00,VWS V14.00,2013-01-12 11:57:00,
2013-01-12 07:00:00,59.3,58.2,30.20,SSE,159,0.0,0.0,96,0.00,,---,0.00,VWS V14.00,2013-01-12 12:00:00,
2013-01-12 07:02:00,59.2,58.1,30.19,SSE,159,0.0,0.0,96,0.00,,---,0.00,VWS V14.00,2013-01-12 12:02:00,
2013-01-12 07:07:00,59.1,58.0,30.19,SSE,159,0.0,0.0,96,0.00,,---,0.00,VWS V14.00,2013-01-12 12:07:00,
2013-01-12 07:12:00,59.1,58.0,30.19,SSE,159,0.0,0.0,96,0.00,,---,0.00,VWS V14.00,2013-01-12 12:12:00,
2013-01-12 07:17:00,59.1,58.0,30.19,SSE,159,0.0,0.0,96,0.00,,---,0.00,VWS V14.00,2013-01-12 12:17:00,
2013-01-12 07:22:00,59.0,57.9,30.19,SSE,159,0.0,0.0,96,0.00,,---,0.00,VWS V14.00,2013-01-12 12:22:00,
2013-01-12 07:27:00,59.0,57.9,30.19,SSE,159,0.0,0.0,96,0.00,,---,0.00,VWS V14.00,2013-01-12 12:27:00,
2013-01-12 07:30:00,61.0,59.8,30.21,SSE,159,0.0,0.0,96,0.00,,---,0.00,VWS V14.00,2013-01-12 12:30:00,
2013-01-12 07:32:00,59.0,57.9,30.19,SSE,159,0.0,0.0,96,0.00,,---,0.00,VWS V14.00,2013-01-12 12:32:00,
2013-01-12 07:37:00,59.0,57.9,30.19,SSE,159,0.0,0.0,96,0.00,,---,0.00,VWS V14.00,2013-01-12 12:37:00,
2013-01-12 07:42:00,59.0,57.9,30.20,SSE,159,0.0,0.0,96,0.00,,---,0.00,VWS V14.00,2013-01-12 12:42:00,
2013-01-12 07:47:00,59.0,57.9,30.20,SSE,159,0.0,0.0,96,0.00,,---,0.00,VWS V14.00,2013-01-12 12:47:00,
2013-01-12 07:52:00,59.0,57.9,30.20,SSE,159,0.0,0.0,96,0.00,,---,0.00,VWS V14.00,2013-01-12 12:52:00,
2013-01-12 07:57:00,59.2,58.1,30.20,SSE,159,0.0,0.0,96,0.00,,---,0.00,VWS V14.00,2013-01-12 12:57:00,
2013-01-12 08:00:00,63.9,63.0,30.21,SSE,159,0.0,0.0,97,0.00,,---,0.00,VWS V14.00,2013-01-12 13:00:00,
2013-01-12 08:02:00,59.3,58.2,30.20,SSE,159,0.0,0.0,96,0.00,,---,0.00,VWS V14.00,2013-01-12 13:02:00,
2013-01-12 08:07:00,59.6,58.5,30.20,SSE,159,0.0,0.0,96,0.00,,---,0.00,VWS V14.00,2013-01-12 13:07:00,
2013-01-12 08:12:00,59.6,58.5,30.20,SSE,159,0.0,0.0,96,0.00,,---,0.00,VWS V14.00,2013-01-12 13:12:00,
2013-01-12 08:17:00,59.9,58.8,30.20,SSE,159,0.0,0.0,96,0.00,,---,0.00,VWS V14.00,2013-01-12 13:17:00,
2013-01-12 08:22:00,60.4,59.3,30.20,SSE,159,0.0,0.0,96,0.00,,---,0.00,VWS V14.00,2013-01-12 13:22:00,
2013-01-12 08:28:00,60.8,59.7,30.20,SSE,159,0.0,0.0,96,0.00,,---,0.00,VWS V14.00,2013-01-12 13:28:00,
2013-01-12 08:30:00,66.5,65.6,30.22,SSE,159,0.0,0.0,97,0.00,,---,0.00,VWS V14.00,2013-01-12 13:30:00,
2013-01-12 08:33:00,61.2,60.0,30.21,SSE,159,0.0,0.0,96,0.00,,---,0.00,VWS V14.00,2013-01-12 13:33:00,
2013-01-12 08:38:00,61.9,60.8,30.21,SSE,159,0.0,0.0,96,0.00,,---,0.00,VWS V14.00,2013-01-12 13:38:00,
2013-01-12 08:43:00,62.4,61.2,30.21,SSE,159,0.0,0.0,96,0.00,,---,0.00,VWS V14.00,2013-01-12 13:43:00,
2013-01-12 08:48:00,62.8,61.7,30.21,SSE,159,0.0,0.0,96,0.00,,---,0.00,VWS V14.00,2013-01-12 13:48:00,
2013-01-12 08:53:00,63.1,62.2,30.21,SSE,159,0.0,0.0,97,0.00,,---,0.00,VWS V14.00,2013-01-12 13:53:00,
2013-01-12 08:58:00,63.6,62.4,30.21,SSE,159,0.0,0.0,96,0.00,,---,0.00,VWS V14.00,2013-01-12 13:58:00,
2013-01-12 09:00:00,68.5,67.6,30.21,SSE,159,0.0,2.0,97,0.01,,---,0.01,VWS V14.00,2013-01-12 14:00:00,
2013-01-12 09:03:00,64.2,63.3,30.21,SSE,159,0.0,0.0,97,0.00,,---,0.00,VWS V14.00,2013-01-12 14:03:00,
2013-01-12 09:08:00,64.7,63.8,30.21,SSE,159,0.0,0.0,97,0.00,,---,0.00,VWS V14.00,2013-01-12 14:08:00,
2013-01-12 09:13:00,65.1,64.2,30.21,SSE,159,0.0,0.0,97,0.00,,---,0.00,VWS V14.00,2013-01-12 14:13:00,
2013-01-12 09:18:00,65.5,64.6,30.21,SSE,159,0.0,0.0,97,0.00,,---,0.00,VWS V14.00,2013-01-12 14:18:00,
2013-01-12 09:23:00,65.8,64.9,30.22,SSE,159,0.0,0.0,97,0.00,,---,0.00,VWS V14.00,2013-01-12 14:23:00,
2013-01-12 09:28:00,66.2,65.3,30.22,SSE,159,0.0,0.0,97,0.00,,---,0.00,VWS V14.00,2013-01-12 14:28:00,
2013-01-12 09:30:00,71.3,69.2,30.20,SSW,212,0.0,0.0,93,0.01,,---,0.01,VWS V14.00,2013-01-12 14:30:00,
2013-01-12 09:33:00,66.7,65.8,30.22,SSE,159,0.0,0.0,97,0.00,,---,0.00,VWS V14.00,2013-01-12 14:33:00,
2013-01-12 09:38:00,67.0,66.1,30.22,SSE,159,0.0,2.0,97,0.00,,---,0.00,VWS V14.00,2013-01-12 14:38:00,
2013-01-12 09:43:00,67.4,66.5,30.22,SSE,159,0.0,2.0,97,0.00,,---,0.00,VWS V14.00,2013-01-12 14:43:00,
2013-01-12 09:49:00,67.7,66.8,30.21,SSE,159,0.0,2.0,97,0.01,,---,0.01,VWS V14.00,2013-01-12 14:49:00,
2013-01-12 09:54:00,68.0,67.1,30.22,SSE,159,0.0,2.0,97,0.01,,---,0.01,VWS V14.00,2013-01-12 14:54:00,
2013-01-12 09:59:00,68.3,67.4,30.21,SSE,159,0.0,2.0,97,0.01,,---,0.01,VWS V14.00,2013-01-12 14:59:00,
2013-01-12 10:00:00,74.4,68.9,30.19,NE,53,0.0,2.0,83,0.01,,---,0.01,VWS V14.00,2013-01-12 15:00:00,
2013-01-12 10:04:00,68.8,67.9,30.21,SSE,159,0.0,0.0,97,0.01,,---,0.01,VWS V14.00,2013-01-12 15:04:00,
2013-01-12 10:09:00,69.1,68.2,30.21,SSE,159,0.0,0.0,97,0.01,,---,0.01,VWS V14.00,2013-01-12 15:09:00,
2013-01-12 10:14:00,69.5,68.3,30.21,SSE,159,0.0,0.0,96,0.01,,---,0.01,VWS V14.00,2013-01-12 15:14:00,
2013-01-12 10:19:00,70.1,68.9,30.21,SSE,159,0.0,0.0,96,0.01,,---,0.01,VWS V14.00,2013-01-12 15:19:00,
2013-01-12 10:24:00,70.5,69.3,30.20,SSE,158,0.0,0.0,96,0.01,,---,0.01,VWS V14.00,2013-01-12 15:24:00,
2013-01-12 10:29:00,71.1,69.6,30.20,SSE,157,0.0,0.0,95,0.01,,---,0.01,VWS V14.00,2013-01-12 15:29:00,
2013-01-12 10:30:00,76.4,67.5,30.18,SSE,163,0.0,6.0,74,0.00,,---,0.01,VWS V14.00,2013-01-12 15:30:00,
2013-01-12 10:34:00,71.8,69.7,30.20,SSW,211,0.0,1.0,93,0.01,,---,0.01,VWS V14.00,2013-01-12 15:34:00,
2013-01-12 10:39:00,72.3,69.5,30.20,SSW,211,0.0,1.0,91,0.01,,---,0.01,VWS V14.00,2013-01-12 15:39:00,
2013-01-12 10:44:00,72.9,69.5,30.19,WSW,256,0.0,1.0,89,0.01,,---,0.01,VWS V14.00,2013-01-12 15:44:00,
2013-01-12 10:49:00,73.4,69.0,30.19,North,360,0.0,2.0,86,0.01,,---,0.01,VWS V14.00,2013-01-12 15:49:00,
2013-01-12 10:54:00,73.8,69.0,30.19,ESE,113,0.0,2.0,85,0.01,,---,0.01,VWS V14.00,2013-01-12 15:54:00,
2013-01-12 10:59:00,74.2,69.1,30.19,NE,55,0.0,2.0,84,0.01,,---,0.01,VWS V14.00,2013-01-12 15:59:00,
2013-01-12 11:00:00,78.2,66.8,30.16,SSE,165,0.0,3.0,68,0.00,,---,0.01,VWS V14.00,2013-01-12 16:00:00,
2013-01-12 11:04:00,74.5,68.7,30.19,NE,53,0.0,4.0,82,0.00,,---,0.01,VWS V14.00,2013-01-12 16:04:00,
2013-01-12 11:09:00,75.1,68.5,30.19,SE,145,0.0,4.0,80,0.00,,---,0.01,VWS V14.00,2013-01-12 16:09:00,
2013-01-12 11:14:00,75.5,68.2,30.19,SSW,201,0.0,6.0,78,0.00,,---,0.01,VWS V14.00,2013-01-12 16:14:00,
2013-01-12 11:19:00,75.7,68.0,30.18,SW,225,0.0,6.0,77,0.00,,---,0.01,VWS V14.00,2013-01-12 16:19:00,
2013-01-12 11:24:00,76.1,68.0,30.18,SSE,150,0.0,6.0,76,0.00,,---,0.01,VWS V14.00,2013-01-12 16:24:00,
2013-01-12 11:29:00,76.3,68.2,30.18,WSW,250,0.0,6.0,76,0.00,,---,0.01,VWS V14.00,2013-01-12 16:29:00,
2013-01-12 11:30:00,79.9,66.2,30.14,NE,38,1.0,5.0,63,0.00,,---,0.01,VWS V14.00,2013-01-12 16:30:00,
2013-01-12 11:34:00,76.6,67.3,30.17,SSE,164,0.0,1.0,73,0.00,,---,0.01,VWS V14.00,2013-01-12 16:34:00,
2013-01-12 11:39:00,77.0,67.7,30.17,SSW,192,0.0,1.0,73,0.00,,---,0.01,VWS V14.00,2013-01-12 16:39:00,
2013-01-12 11:44:00,77.1,67.0,30.17,SSW,196,0.0,1.0,71,0.00,,---,0.01,VWS V14.00,2013-01-12 16:44:00,
2013-01-12 11:50:00,77.4,66.9,30.17,South,188,0.0,3.0,70,0.00,,---,0.01,VWS V14.00,2013-01-12 16:50:00,
2013-01-12 11:55:00,77.8,67.2,30.17,SSE,149,0.0,3.0,70,0.00,,---,0.01,VWS V14.00,2013-01-12 16:55:00,
2013-01-12 12:00:00,78.2,66.8,30.16,SSE,157,0.0,3.0,68,0.00,,---,0.01,VWS V14.00,2013-01-12 17:00:00,
2013-01-12 12:05:00,78.6,67.2,30.16,South,180,0.0,4.0,68,0.00,,---,0.01,VWS V14.00,2013-01-12 17:05:00,
2013-01-12 12:10:00,78.8,66.9,30.15,South,182,0.0,4.0,67,0.00,,---,0.01,VWS V14.00,2013-01-12 17:10:00,
2013-01-12 12:15:00,79.1,66.8,30.15,SSE,148,0.0,4.0,66,0.00,,---,0.01,VWS V14.00,2013-01-12 17:15:00,
2013-01-12 12:20:00,79.3,66.1,30.15,NE,40,0.0,5.0,64,0.00,,---,0.01,VWS V14.00,2013-01-12 17:20:00,
2013-01-12 12:25:00,79.6,65.9,30.15,NE,40,0.0,5.0,63,0.00,,---,0.01,VWS V14.00,2013-01-12 17:25:00,
2013-01-12 12:30:00,79.9,66.2,30.14,NE,38,0.0,5.0,63,0.00,,---,0.01,VWS V14.00,2013-01-12 17:30:00,
2013-01-12 12:35:00,79.9,66.2,30.14,NE,34,0.0,1.0,63,0.00,,---,0.01,VWS V14.00,2013-01-12 17:35:00,
2013-01-12 12:40:00,79.3,66.1,30.14,NNE,33,0.0,1.0,64,0.00,,---,0.01,VWS V14.00,2013-01-12 17:40:00,
2013-01-12 12:45:00,79.5,65.3,30.13,SSW,198,0.0,4.0,62,0.00,,---,0.01,VWS V14.00,2013-01-12 17:45:00,
2013-01-12 12:50:00,80.1,65.9,30.13,SSW,196,0.0,4.0,62,0.00,,---,0.01,VWS V14.00,2013-01-12 17:50:00,
2013-01-12 12:55:00,80.3,65.6,30.13,SSE,157,0.0,4.0,61,0.00,,---,0.01,VWS V14.00,2013-01-12 17:55:00,
2013-01-12 13:00:00,80.4,66.2,30.13,SE,146,0.0,4.0,62,0.00,,---,0.01,VWS V14.00,2013-01-12 18:00:00,
2013-01-12 13:05:00,80.7,65.5,30.13,WNW,283,0.0,4.0,60,0.00,,---,0.01,VWS V14.00,2013-01-12 18:05:00,
2013-01-12 13:10:00,80.7,65.5,30.12,WNW,287,0.0,4.0,60,0.00,,---,0.01,VWS V14.00,2013-01-12 18:10:00,
2013-01-12 13:15:00,80.3,65.2,30.13,SSW,205,0.0,4.0,60,0.00,,---,0.01,VWS V14.00,2013-01-12 18:15:00,
2013-01-12 13:20:00,80.3,64.7,30.12,SSW,202,0.0,4.0,59,0.00,,---,0.01,VWS V14.00,2013-01-12 18:20:00,
2013-01-12 13:25:00,80.9,64.2,30.12,SSW,202,0.0,4.0,57,0.00,,---,0.01,VWS V14.00,2013-01-12 18:25:00,
2013-01-12 13:30:00,83.0,63.6,30.10,SSE,168,0.0,7.0,52,0.00,,---,0.01,VWS V14.00,2013-01-12 18:30:00,
2013-01-12 13:31:00,81.5,64.8,30.12,North,11,0.0,4.0,57,0.00,,---,0.01,VWS V14.00,2013-01-12 18:31:00,
2013-01-12 13:36:00,81.4,64.2,30.12,NNE,32,0.0,4.0,56,0.00,,---,0.01,VWS V14.00,2013-01-12 18:36:00,
2013-01-12 13:41:00,81.4,64.7,30.12,SW,225,0.0,4.0,57,0.00,,---,0.01,VWS V14.00,2013-01-12 18:41:00,
2013-01-12 13:46:00,81.7,64.5,30.11,South,176,0.0,4.0,56,0.00,,---,0.01,VWS V14.00,2013-01-12 18:46:00,
2013-01-12 13:51:00,82.1,64.3,30.11,South,177,0.0,4.0,55,0.00,,---,0.01,VWS V14.00,2013-01-12 18:51:00,
2013-01-12 13:56:00,82.4,64.6,30.11,SW,226,0.0,4.0,55,0.00,,---,0.01,VWS V14.00,2013-01-12 18:56:00,
2013-01-12 14:00:00,80.5,63.4,30.10,South,169,0.0,0.0,56,0.00,,---,0.01,VWS V14.00,2013-01-12 19:00:00,
2013-01-12 14:01:00,82.9,65.1,30.11,WSW,253,0.0,0.0,55,0.00,,---,0.01,VWS V14.00,2013-01-12 19:01:00,
2013-01-12 14:06:00,83.1,64.8,30.11,NE,42,0.0,7.0,54,0.00,,---,0.01,VWS V14.00,2013-01-12 19:06:00,
2013-01-12 14:11:00,83.4,65.0,30.11,NE,42,0.0,7.0,54,0.00,,---,0.01,VWS V14.00,2013-01-12 19:11:00,
2013-01-12 14:16:00,83.6,64.1,30.11,NE,42,0.0,7.0,52,0.00,,---,0.01,VWS V14.00,2013-01-12 19:16:00,
2013-01-12 14:21:00,83.9,64.4,30.11,NNW,346,0.0,7.0,52,0.00,,---,0.01,VWS V14.00,2013-01-12 19:21:00,
2013-01-12 14:26:00,83.6,64.1,30.11,SW,233,0.0,7.0,52,0.00,,---,0.01,VWS V14.00,2013-01-12 19:26:00,
2013-01-12 14:30:00,80.7,63.0,30.10,South,169,0.0,1.0,55,0.00,,---,0.01,VWS V14.00,2013-01-12 19:30:00,
2013-01-12 14:31:00,82.9,63.5,30.11,SSE,168,0.0,0.0,52,0.00,,---,0.01,VWS V14.00,2013-01-12 19:31:00,
2013-01-12 14:36:00,82.3,64.0,30.11,SSE,168,0.0,0.0,54,0.00,,---,0.01,VWS V14.00,2013-01-12 19:36:00,
2013-01-12 14:41:00,81.9,63.6,30.10,SSE,168,0.0,0.0,54,0.00,,---,0.01,VWS V14.00,2013-01-12 19:41:00,
2013-01-12 14:47:00,81.9,63.1,30.10,South,169,0.0,0.0,53,0.00,,---,0.01,VWS V14.00,2013-01-12 19:47:00,
2013-01-12 14:52:00,81.5,62.7,30.10,South,169,0.0,0.0,53,0.00,,---,0.01,VWS V14.00,2013-01-12 19:52:00,
2013-01-12 14:57:00,80.9,63.8,30.10,South,169,0.0,0.0,56,0.00,,---,0.01,VWS V14.00,2013-01-12 19:57:00,
2013-01-12 15:00:00,80.6,63.0,30.11,South,169,0.0,1.0,55,0.00,,---,0.01,VWS V14.00,2013-01-12 20:00:00,
2013-01-12 15:02:00,80.4,63.8,30.10,South,169,0.0,0.0,57,0.00,,---,0.01,VWS V14.00,2013-01-12 20:02:00,
2013-01-12 15:07:00,80.1,64.0,30.10,South,169,0.0,0.0,58,0.00,,---,0.01,VWS V14.00,2013-01-12 20:07:00,
2013-01-12 15:12:00,79.6,63.5,30.10,South,169,0.0,0.0,58,0.00,,---,0.01,VWS V14.00,2013-01-12 20:12:00,
2013-01-12 15:17:00,79.4,63.8,30.10,South,169,0.0,0.0,59,0.00,,---,0.01,VWS V14.00,2013-01-12 20:17:00,
2013-01-12 15:22:00,79.9,63.3,30.10,South,169,0.0,1.0,57,0.00,,---,0.01,VWS V14.00,2013-01-12 20:22:00,
2013-01-12 15:27:00,80.6,64.0,30.10,South,169,0.0,1.0,57,0.00,,---,0.01,VWS V14.00,2013-01-12 20:27:00,
2013-01-12 15:30:00,80.0,62.4,30.11,South,180,0.0,1.0,55,0.00,,---,0.01,VWS V14.00,2013-01-12 20:30:00,
2013-01-12 15:32:00,80.6,63.0,30.10,South,169,0.0,0.0,55,0.00,,---,0.01,VWS V14.00,2013-01-12 20:32:00,
2013-01-12 15:37:00,80.4,63.8,30.10,South,169,0.0,0.0,57,0.00,,---,0.01,VWS V14.00,2013-01-12 20:37:00,
2013-01-12 15:42:00,80.5,63.4,30.10,South,169,0.0,0.0,56,0.00,,---,0.01,VWS V14.00,2013-01-12 20:42:00,
2013-01-12 15:47:00,81.2,63.5,30.10,South,169,0.0,1.0,55,0.00,,---,0.01,VWS V14.00,2013-01-12 20:47:00,
2013-01-12 15:52:00,81.2,63.0,30.11,South,169,0.0,1.0,54,0.00,,---,0.01,VWS V14.00,2013-01-12 20:52:00,
2013-01-12 15:57:00,80.9,63.2,30.11,South,169,0.0,1.0,55,0.00,,---,0.01,VWS V14.00,2013-01-12 20:57:00,
2013-01-12 16:00:00,79.3,63.7,30.12,South,180,0.0,0.0,59,0.00,,---,0.01,VWS V14.00,2013-01-12 21:00:00,
2013-01-12 16:02:00,80.5,62.9,30.11,South,169,0.0,0.0,55,0.00,,---,0.01,VWS V14.00,2013-01-12 21:02:00,
2013-01-12 16:07:00,80.3,62.7,30.11,South,169,0.0,0.0,55,0.00,,---,0.01,VWS V14.00,2013-01-12 21:07:00,
2013-01-12 16:12:00,80.0,61.9,30.11,South,169,0.0,0.0,54,0.00,,---,0.01,VWS V14.00,2013-01-12 21:12:00,
2013-01-12 16:17:00,80.0,62.9,30.11,South,169,0.0,0.0,56,0.00,,---,0.01,VWS V14.00,2013-01-12 21:17:00,
2013-01-12 16:22:00,79.9,62.8,30.11,South,169,0.0,0.0,56,0.00,,---,0.01,VWS V14.00,2013-01-12 21:22:00,
2013-01-12 16:28:00,80.0,62.4,30.11,South,180,0.0,1.0,55,0.00,,---,0.01,VWS V14.00,2013-01-12 21:28:00,
2013-01-12 16:30:00,75.7,63.5,30.12,South,180,0.0,0.0,66,0.00,,---,0.01,VWS V14.00,2013-01-12 21:30:00,
2013-01-12 16:33:00,80.1,62.5,30.11,South,180,0.0,0.0,55,0.00,,---,0.01,VWS V14.00,2013-01-12 21:33:00,
2013-01-12 16:38:00,80.2,62.6,30.11,South,180,0.0,0.0,55,0.00,,---,0.01,VWS V14.00,2013-01-12 21:38:00,
2013-01-12 16:43:00,80.2,63.6,30.11,South,180,0.0,0.0,57,0.00,,---,0.01,VWS V14.00,2013-01-12 21:43:00,
2013-01-12 16:48:00,79.9,63.8,30.12,South,180,0.0,0.0,58,0.00,,---,0.01,VWS V14.00,2013-01-12 21:48:00,
2013-01-12 16:53:00,79.7,64.1,30.12,South,180,0.0,0.0,59,0.00,,---,0.01,VWS V14.00,2013-01-12 21:53:00,
2013-01-12 16:58:00,79.4,63.8,30.12,South,180,0.0,0.0,59,0.00,,---,0.01,VWS V14.00,2013-01-12 21:58:00,
2013-01-12 17:00:00,73.7,63.7,30.12,South,180,0.0,0.0,71,0.00,,---,0.01,VWS V14.00,2013-01-12 22:00:00,
2013-01-12 17:03:00,79.1,64.0,30.12,South,180,0.0,0.0,60,0.00,,---,0.01,VWS V14.00,2013-01-12 22:03:00,
2013-01-12 17:08:00,78.6,63.6,30.12,South,180,0.0,0.0,60,0.00,,---,0.01,VWS V14.00,2013-01-12 22:08:00,
2013-01-12 17:13:00,78.0,63.5,30.12,South,180,0.0,0.0,61,0.00,,---,0.01,VWS V14.00,2013-01-12 22:13:00,
2013-01-12 17:18:00,77.5,63.5,30.12,South,180,0.0,0.0,62,0.00,,---,0.01,VWS V14.00,2013-01-12 22:18:00,
2013-01-12 17:23:00,76.8,63.3,30.12,South,180,0.0,0.0,63,0.00,,---,0.01,VWS V14.00,2013-01-12 22:23:00,
2013-01-12 17:28:00,76.1,63.5,30.12,South,180,0.0,0.0,65,0.00,,---,0.01,VWS V14.00,2013-01-12 22:28:00,
2013-01-12 17:30:00,72.3,63.9,30.13,South,180,0.0,0.0,75,0.00,,---,0.01,VWS V14.00,2013-01-12 22:30:00,
2013-01-12 17:33:00,75.5,63.8,30.12,South,180,0.0,0.0,67,0.00,,---,0.01,VWS V14.00,2013-01-12 22:33:00,
2013-01-12 17:38:00,75.1,63.8,30.13,South,180,0.0,0.0,68,0.00,,---,0.01,VWS V14.00,2013-01-12 22:38:00,
2013-01-12 17:44:00,74.8,64.0,30.13,South,180,0.0,0.0,69,0.00,,---,0.01,VWS V14.00,2013-01-12 22:44:00,
2013-01-12 17:49:00,74.5,63.7,30.13,South,180,0.0,0.0,69,0.00,,---,0.01,VWS V14.00,2013-01-12 22:49:00,
2013-01-12 17:54:00,74.2,63.8,30.13,South,180,0.0,0.0,70,0.00,,---,0.01,VWS V14.00,2013-01-12 22:54:00,
2013-01-12 17:59:00,73.9,63.9,30.12,South,180,0.0,0.0,71,0.00,,---,0.01,VWS V14.00,2013-01-12 22:59:00,
2013-01-12 18:00:00,72.1,63.8,30.14,South,180,0.0,0.0,75,0.00,,---,0.01,VWS V14.00,2013-01-12 23:00:00,
2013-01-12 18:04:00,73.5,63.9,30.12,South,180,0.0,0.0,72,0.00,,---,0.01,VWS V14.00,2013-01-12 23:04:00,
2013-01-12 18:09:00,73.1,63.5,30.12,South,180,0.0,0.0,72,0.00,,---,0.01,VWS V14.00,2013-01-12 23:09:00,
2013-01-12 18:14:00,72.8,63.7,30.13,South,180,0.0,0.0,73,0.00,,---,0.01,VWS V14.00,2013-01-12 23:14:00,
2013-01-12 18:19:00,72.5,63.8,30.13,South,180,0.0,0.0,74,0.00,,---,0.01,VWS V14.00,2013-01-12 23:19:00,
2013-01-12 18:24:00,72.3,63.9,30.13,South,180,0.0,0.0,75,0.00,,---,0.01,VWS V14.00,2013-01-12 23:24:00,
2013-01-12 18:29:00,72.3,63.9,30.13,South,180,0.0,0.0,75,0.00,,---,0.01,VWS V14.00,2013-01-12 23:29:00,
2013-01-12 18:30:00,70.9,63.3,30.13,SSE,151,0.0,0.0,77,0.00,,---,0.01,VWS V14.00,2013-01-12 23:30:00,
2013-01-12 18:35:00,72.3,63.9,30.13,South,180,0.0,0.0,75,0.00,,---,0.01,VWS V14.00,2013-01-12 23:35:00,
2013-01-12 18:40:00,72.3,63.9,30.13,South,180,0.0,0.0,75,0.00,,---,0.01,VWS V14.00,2013-01-12 23:40:00,
2013-01-12 18:45:00,72.2,63.8,30.13,South,180,0.0,0.0,75,0.00,,---,0.01,VWS V14.00,2013-01-12 23:45:00,
2013-01-12 18:50:00,72.1,63.8,30.13,South,180,0.0,0.0,75,0.00,,---,0.01,VWS V14.00,2013-01-12 23:50:00,
2013-01-12 18:55:00,72.1,63.8,30.14,South,180,0.0,0.0,75,0.00,,---,0.01,VWS V14.00,2013-01-12 23:55:00,
2013-01-12 19:00:00,72.1,63.8,30.14,South,180,0.0,0.0,75,0.00,,---,0.01,VWS V14.00,2013-01-13 00:00:00,
2013-01-12 19:05:00,72.0,63.7,30.14,South,180,0.0,0.0,75,0.00,,---,0.01,VWS V14.00,2013-01-13 00:05:00,
2013-01-12 19:10:00,71.9,63.5,30.13,South,180,0.0,0.0,75,0.00,,---,0.01,VWS V14.00,2013-01-13 00:10:00,
2013-01-12 19:15:00,71.7,63.7,30.14,South,180,0.0,0.0,76,0.00,,---,0.01,VWS V14.00,2013-01-13 00:15:00,
2013-01-12 19:20:00,71.4,63.5,30.13,South,180,0.0,0.0,76,0.00,,---,0.01,VWS V14.00,2013-01-13 00:20:00,
2013-01-12 19:25:00,71.2,63.6,30.13,SSE,150,0.0,0.0,77,0.00,,---,0.01,VWS V14.00,2013-01-13 00:25:00,
2013-01-12 19:30:00,69.1,63.7,30.13,SSE,151,0.0,0.0,83,0.00,,---,0.01,VWS V14.00,2013-01-13 00:30:00,
2013-01-12 19:31:00,70.9,63.3,30.13,SSE,150,0.0,0.0,77,0.00,,---,0.01,VWS V14.00,2013-01-13 00:31:00,
2013-01-12 19:36:00,70.6,63.0,30.14,SSE,151,0.0,0.0,77,0.00,,---,0.01,VWS V14.00,2013-01-13 00:36:00,
2013-01-12 19:41:00,70.4,63.2,30.13,SSE,150,0.0,0.0,78,0.00,,---,0.01,VWS V14.00,2013-01-13 00:41:00,
2013-01-12 19:46:00,70.3,63.5,30.13,SSE,151,0.0,0.0,79,0.00,,---,0.01,VWS V14.00,2013-01-13 00:46:00,
2013-01-12 19:51:00,70.1,63.3,30.14,SSE,151,0.0,0.0,79,0.00,,---,0.01,VWS V14.00,2013-01-13 00:51:00,
2013-01-12 19:56:00,70.0,63.2,30.14,SSE,151,0.0,0.0,79,0.00,,---,0.01,VWS V14.00,2013-01-13 00:56:00,
2013-01-12 20:00:00,68.5,63.8,30.12,SSE,152,0.0,0.0,85,0.00,,---,0.01,VWS V14.00,2013-01-13 01:00:00,
2013-01-12 20:01:00,70.0,63.5,30.14,SSE,151,0.0,0.0,80,0.00,,---,0.01,VWS V14.00,2013-01-13 01:01:00,
2013-01-12 20:06:00,69.9,63.5,30.13,SSE,151,0.0,0.0,80,0.00,,---,0.01,VWS V14.00,2013-01-13 01:06:00,
2013-01-12 20:11:00,69.8,63.7,30.13,SSE,151,0.0,0.0,81,0.00,,---,0.01,VWS V14.00,2013-01-13 01:11:00,
2013-01-12 20:16:00,69.6,63.5,30.13,SSE,151,0.0,0.0,81,0.00,,---,0.01,VWS V14.00,2013-01-13 01:16:00,
2013-01-12 20:22:00,69.4,63.7,30.13,SSE,151,0.0,0.0,82,0.00,,---,0.01,VWS V14.00,2013-01-13 01:22:00,
2013-01-12 20:27:00,69.3,63.6,30.13,SSE,150,0.0,0.0,82,0.00,,---,0.01,VWS V14.00,2013-01-13 01:27:00,
2013-01-12 20:30:00,68.3,63.6,30.12,SSE,152,0.0,0.0,85,0.00,,---,0.01,VWS V14.00,2013-01-13 01:30:00,
2013-01-12 20:32:00,69.1,63.7,30.13,SSE,151,0.0,0.0,83,0.00,,---,0.01,VWS V14.00,2013-01-13 01:32:00,
2013-01-12 20:37:00,68.9,63.5,30.13,SSE,151,0.0,0.0,83,0.00,,---,0.01,VWS V14.00,2013-01-13 01:37:00,
2013-01-12 20:42:00,68.7,63.7,30.13,SSE,152,0.0,0.0,84,0.00,,---,0.01,VWS V14.00,2013-01-13 01:42:00,
2013-01-12 20:47:00,68.5,63.5,30.13,SSE,152,0.0,0.0,84,0.00,,---,0.01,VWS V14.00,2013-01-13 01:47:00,
2013-01-12 20:52:00,68.3,63.3,30.12,SSE,152,0.0,0.0,84,0.00,,---,0.01,VWS V14.00,2013-01-13 01:52:00,
2013-01-12 20:57:00,68.3,63.6,30.12,SSE,152,0.0,0.0,85,0.00,,---,0.01,VWS V14.00,2013-01-13 01:57:00,
2013-01-12 21:00:00,68.4,63.7,30.12,SSE,152,0.0,2.0,85,0.00,,---,0.01,VWS V14.00,2013-01-13 02:00:00,
2013-01-12 21:02:00,68.5,63.8,30.12,SSE,152,0.0,0.0,85,0.00,,---,0.01,VWS V14.00,2013-01-13 02:02:00,
2013-01-12 21:07:00,68.6,63.9,30.12,SSE,152,0.0,0.0,85,0.00,,---,0.01,VWS V14.00,2013-01-13 02:07:00,
2013-01-12 21:12:00,68.5,63.8,30.12,SSE,152,0.0,0.0,85,0.00,,---,0.01,VWS V14.00,2013-01-13 02:12:00,
2013-01-12 21:17:00,68.4,63.7,30.12,SSE,152,0.0,0.0,85,0.00,,---,0.01,VWS V14.00,2013-01-13 02:17:00,
2013-01-12 21:22:00,68.3,63.6,30.12,SSE,152,0.0,0.0,85,0.00,,---,0.01,VWS V14.00,2013-01-13 02:22:00,
2013-01-12 21:27:00,68.2,63.5,30.12,SSE,152,0.0,0.0,85,0.00,,---,0.01,VWS V14.00,2013-01-13 02:27:00,
2013-01-12 21:30:00,68.1,64.1,30.11,SSE,152,0.0,0.0,87,0.00,,---,0.01,VWS V14.00,2013-01-13 02:30:00,
2013-01-12 21:32:00,68.3,63.6,30.12,SSE,152,0.0,0.0,85,0.00,,---,0.01,VWS V14.00,2013-01-13 02:32:00,
2013-01-12 21:38:00,68.3,63.6,30.12,SSE,152,0.0,0.0,85,0.00,,---,0.01,VWS V14.00,2013-01-13 02:38:00,
2013-01-12 21:43:00,68.3,63.6,30.12,SSE,152,0.0,0.0,85,0.00,,---,0.01,VWS V14.00,2013-01-13 02:43:00,
2013-01-12 21:48:00,68.4,63.7,30.12,SSE,152,0.0,2.0,85,0.00,,---,0.01,VWS V14.00,2013-01-13 02:48:00,
2013-01-12 21:53:00,68.5,63.8,30.12,SSE,152,0.0,2.0,85,0.00,,---,0.01,VWS V14.00,2013-01-13 02:53:00,
2013-01-12 21:58:00,68.5,63.8,30.12,SSE,152,0.0,2.0,85,0.00,,---,0.01,VWS V14.00,2013-01-13 02:58:00,
2013-01-12 22:00:00,67.2,63.5,30.12,SW,223,0.0,2.0,88,0.00,,---,0.01,VWS V14.00,2013-01-13 03:00:00,
2013-01-12 22:03:00,68.4,63.7,30.12,SSE,152,0.0,0.0,85,0.00,,---,0.01,VWS V14.00,2013-01-13 03:03:00,
2013-01-12 22:08:00,68.3,64.0,30.12,SSE,152,0.0,0.0,86,0.00,,---,0.01,VWS V14.00,2013-01-13 03:08:00,
2013-01-12 22:13:00,68.3,64.0,30.12,SSE,152,0.0,0.0,86,0.00,,---,0.01,VWS V14.00,2013-01-13 03:13:00,
2013-01-12 22:18:00,68.2,63.9,30.11,SSE,152,0.0,0.0,86,0.00,,---,0.01,VWS V14.00,2013-01-13 03:18:00,
2013-01-12 22:23:00,68.1,63.8,30.11,SSE,152,0.0,0.0,86,0.00,,---,0.01,VWS V14.00,2013-01-13 03:23:00,
2013-01-12 22:29:00,68.1,64.1,30.11,SSE,152,0.0,0.0,87,0.00,,---,0.01,VWS V14.00,2013-01-13 03:29:00,
2013-01-12 22:30:00,67.0,64.3,30.12,SW,223,0.0,0.0,91,0.00,,---,0.01,VWS V14.00,2013-01-13 03:30:00,
2013-01-12 22:34:00,68.0,64.0,30.11,SSE,152,0.0,0.0,87,0.00,,---,0.01,VWS V14.00,2013-01-13 03:34:00,
2013-01-12 22:39:00,67.9,63.9,30.11,SSE,152,0.0,0.0,87,0.00,,---,0.01,VWS V14.00,2013-01-13 03:39:00,
2013-01-12 22:44:00,67.7,63.7,30.11,SSE,152,0.0,0.0,87,0.00,,---,0.01,VWS V14.00,2013-01-13 03:44:00,
2013-01-12 22:49:00,67.5,63.8,30.11,SSE,152,0.0,0.0,88,0.00,,---,0.01,VWS V14.00,2013-01-13 03:49:00,
2013-01-12 22:54:00,67.3,63.6,30.12,SW,222,0.0,2.0,88,0.00,,---,0.01,VWS V14.00,2013-01-13 03:54:00,
2013-01-12 22:59:00,67.2,63.5,30.12,SW,223,0.0,2.0,88,0.00,,---,0.01,VWS V14.00,2013-01-13 03:59:00,
2013-01-12 23:00:00,66.9,64.5,30.12,SW,223,0.0,1.0,92,0.00,,---,0.01,VWS V14.00,2013-01-13 04:00:00,
2013-01-12 23:04:00,67.1,63.8,30.12,SW,223,0.0,0.0,89,0.00,,---,0.01,VWS V14.00,2013-01-13 04:04:00,
2013-01-12 23:09:00,67.0,63.7,30.12,SW,223,0.0,0.0,89,0.00,,---,0.01,VWS V14.00,2013-01-13 04:09:00,
2013-01-12 23:14:00,67.0,64.0,30.12,SW,223,0.0,0.0,90,0.00,,---,0.01,VWS V14.00,2013-01-13 04:14:00,
2013-01-12 23:19:00,67.0,64.0,30.12,SW,223,0.0,0.0,90,0.00,,---,0.01,VWS V14.00,2013-01-13 04:19:00,
2013-01-12 23:24:00,67.0,64.0,30.12,SW,223,0.0,0.0,90,0.00,,---,0.01,VWS V14.00,2013-01-13 04:24:00,
2013-01-12 23:29:00,67.0,64.3,30.12,SW,223,0.0,0.0,91,0.00,,---,0.01,VWS V14.00,2013-01-13 04:29:00,
2013-01-12 23:30:00,66.2,63.8,30.11,SW,223,0.0,0.0,92,0.00,,---,0.00,VWS V14.00,2013-01-13 04:30:00,
2013-01-12 23:34:00,67.0,64.3,30.12,SW,222,0.0,0.0,91,0.00,,---,0.01,VWS V14.00,2013-01-13 04:34:00,
2013-01-12 23:39:00,67.1,64.4,30.12,SW,223,0.0,1.0,91,0.00,,---,0.01,VWS V14.00,2013-01-13 04:39:00,
2013-01-12 23:44:00,67.1,64.4,30.12,SW,223,0.0,1.0,91,0.00,,---,0.01,VWS V14.00,2013-01-13 04:44:00,
2013-01-12 23:50:00,67.1,64.7,30.12,SW,223,0.0,1.0,92,0.00,,---,0.01,VWS V14.00,2013-01-13 04:50:00,
2013-01-12 23:55:00,67.0,64.3,30.11,SW,223,0.0,1.0,91,0.00,,---,0.01,VWS V14.00,2013-01-13 04:55:00,